Regional Weather Roundup
Issued by NWS

Home | Current Version | Previous Version | Text Only | Print | Product List | Glossary On
Versions: 1 2 3 4 5 6 7 8 9 10 11 12 13 14 15 16 17 18 19 20 21 22 23 24 25 26 27 28 29 30 31 32 33 34 35 36 37 38 39 40 41 42 43
000
ASUS42 KFFC 251103
RWRGA
WEATHER ROUNDUP FOR GEORGIA
NATIONAL WEATHER SERVICE PEACHTREE CITY GA
600 AM EST THU DEC 25 2014

NOTE: "FAIR" INDICATES FEW OR NO CLOUDS BELOW 12,000 FEET WITH NO
SIGNIFICANT WEATHER AND/OR OBSTRUCTIONS TO VISIBILITY.

* = USE WITH CAUTION. THE STATIONS MARKED WITH AN ASTERISK MAY NOT
REPORT WEATHER SUCH AS PRECIPITATION, FOG, OR THUNDER AND ARE NOT
QUALITY CONTROLLED BY NWS.

THE REMARK "TC" DENOTES TEMPERATURE READING IN DEGREES CELSIUS.

GAZ001>058-251200-
NORTH GEORGIA

CITY           SKY/WX    TMP DP  RH WIND       PRES   REMARKS
ATLANTA        MOCLDY    41  34  76 W9        30.06R
ATHENS         CLOUDY    43  33  68 W12G20    30.01R
CHAMBLEE       PTCLDY    39  34  82 W8        30.05R WCI  33
PEACHTREE CITY MOCLDY    40  35  83 W5        30.09R
ROME           PTCLDY    38  34  85 CALM      30.07R
WEST ATLANTA   PTCLDY    40  33  76 W5        30.07R
GAINESVILLE    MOCLDY    39  34  82 W9        30.02R WCI  33
CARTERSVILLE   PTCLDY    38  33  82 CALM      30.08R


CITY           SKY/WX    TMP DP  RH WIND       PRES   REMARKS
DALTON*        CLOUDY    41  36  81 CALM      30.07R
MARIETTA       PTCLDY    37  35  93 W8        30.06R WCI  30
$$

GAZ059>098-102>109-251200-
CENTRAL GEORGIA

CITY           SKY/WX    TMP DP  RH WIND       PRES   REMARKS
AUGUSTA-BUSH   CLOUDY    50  41  71 W12       30.02R
AUGUSTA-DANIEL CLOUDY    50  40  68 W8G17     30.02R
COLUMBUS       PTCLDY    42  36  79 NW5       30.11R
MACON          CLOUDY    46  36  68 NW12      30.08R
ROBINS AFB     CLOUDY    47  37  67 W8        30.08R


CITY           SKY/WX    TMP DP  RH WIND       PRES   REMARKS
LAGRANGE*      PTCLDY    41  38  91 NW5       30.10R
SYLVANIA*      CLOUDY    51  46  83 W9        30.04R
MILLEDGEVILLE* CLOUDY    46  39  76 W3        30.06R
$$

GAZ099>101-110>166-251200-
SOUTH GEORGIA

CITY           SKY/WX    TMP DP  RH WIND       PRES   REMARKS
SAVANNAH       CLOUDY    53  44  71 NW10      30.03R
VALDOSTA       CLOUDY    52  44  74 VRB5      30.09R
ALMA           CLOUDY    52  44  74 NW13G20   30.06R
ST SIMONS      CLOUDY    54  44  69 W9G17     30.05R
FT STEWART     CLOUDY    53  44  72 W10       30.02R
ALBANY         CLOUDY    49  38  65 NW7       30.13R
HUNTER AFB     CLOUDY    53  47  82 W10       30.01R
MOODY AFB      CLOUDY    52  45  77 NW9       30.08R
BRUNSWICK      CLOUDY    54  45  71 W3        30.06R


CITY           SKY/WX    TMP DP  RH WIND       PRES   REMARKS
BAINBRIDGE*    CLOUDY    52  41  66 NW6       30.13S
MOULTRIE*      CLOUDY    50  43  76 NW9G17    30.10R
VIDALIA*       CLOUDY    50  45  81 W6G16     30.06R
WAYCROSS*      CLOUDY    55  50  82 NW7       30.06R
DOUGLAS*       CLOUDY    54  43  66 NW9       30.09R
$$


USA.gov is the U.S. government's official web portal to all federal, state and local government web resources and services.